Wetbulb
34.92 35.79 36.89 38.04 38.66 37.66 36.70 37.31 38.27 37.51 36.03 34.86 35.00 34.44 33.93 34.30 35.19 34.94 34.18 33.40 34.56 35.19 35.15 34.59 34.82 34.56 33.66 31.96 31.39 31.22 31.02 30.52 30.53 32.24 33.54 32.39 30.51 29.59 29.14 28.69 28.51 28.69 28.98 29.48 29.02 28.86 28.75 28.48 29.54 30.92 32.25 33.28 32.28 31.19 30.58 30.90 30.03 29.63 29.59 29.73 30.12 29.99 29.46 29.15 29.15 29.14 29.17 29.10 29.67
34.35 35.83 38.00 40.98 40.35 38.42 36.96 37.72 38.03 37.26 35.77 34.25 34.25 33.71 33.48 34.30 35.13 34.76 33.78 32.82 34.00 34.36 34.22 34.08 34.36 32.79 30.99 30.67 31.30 30.76 29.91 29.52 29.45 30.26 30.93 30.15 29.30 28.80 28.62 28.76 28.54 29.30 29.95 29.67 28.98 29.37 29.52 28.50 29.39 30.91 32.22 32.38 31.47 30.76 30.53 31.39 30.25 29.62 29.15 28.67 29.39 29.86 30.00 29.90 29.72 29.49 29.29 29.34 29.19
33.89 35.40 36.93 37.84 36.82 36.48 36.54 36.76 35.96 34.78 33.55 32.87 32.64 32.69 33.06 33.51 34.20 34.33 33.91 32.96 32.18 31.96 32.23 32.99 33.28 32.30 30.77 29.49 28.94 28.71 28.63 28.74 28.71 28.84 29.09 29.28 29.04 28.82 28.78 29.05 28.67 29.63 30.56 30.23 29.13 29.18 29.24 27.95 29.83 31.91 33.13 32.32 30.93 30.68 30.74 30.34 31.03 30.69 29.83 29.18 30.02 30.62 31.06 31.45 30.98 30.48 30.26 30.77 29.65
33.21 34.56 35.60 35.80 35.62 35.96 36.56 37.09 35.48 33.87 32.80 32.75 30.92 31.33 32.36 32.45 33.17 33.17 32.45 31.02 30.49 30.73 31.30 31.42 31.70 31.70 31.22 30.53 29.15 28.26 28.41 30.32 30.62 29.98 29.25 29.23 29.16 29.04 28.87 28.82 29.12 29.14 28.99 28.76 28.64 28.31 27.94 27.50 29.78 31.46 31.84 30.30 29.59 30.07 30.82 31.04 30.72 30.69 30.54 30.31 30.72 30.80 30.92 31.43 31.12 31.13 31.18 31.18 30.15
32.96 33.90 34.67 35.01 35.12 35.05 34.94 34.77 34.33 33.22 32.09 31.32 30.77 30.77 31.09 31.44 32.35 31.63 31.10 32.24 32.28 31.83 31.06 30.10 29.73 30.17 30.85 31.38 29.16 27.89 28.01 29.88 33.22 31.91 29.38 29.03 29.04 28.82 28.55 28.54 29.23 29.27 29.06 28.88 28.63 28.50 28.22 27.69 30.09 31.10 31.06 30.26 30.90 31.06 30.70 29.70 28.82 28.98 29.76 30.81 31.16 31.18 31.07 30.94 31.10 31.06 31.09 31.22 30.65
33.30 32.97 32.66 32.57 32.76 32.54 32.10 31.55 31.63 31.16 30.74 30.67 31.13 31.22 31.30 31.49 31.22 31.36 31.79 32.61 32.01 30.72 30.02 31.18 31.74 32.98 33.25 31.12 28.42 27.37 27.27 27.48 28.89 28.80 28.33 28.75 28.82 28.65 28.60 28.81 28.74 28.77 28.76 28.76 28.52 28.35 28.21 28.09 30.52 31.38 31.42 31.43 31.05 30.50 29.62 28.06 28.46 28.84 29.46 30.23 30.70 30.79 30.66 30.30 30.58 30.65 30.43 29.97 29.12
33.10 32.33 31.56 30.85 30.78 30.82 30.44 29.36 28.95 28.80 29.06 29.95 31.07 31.65 31.63 30.77 30.32 30.33 30.48 30.59 29.86 29.52 30.55 33.84 33.16 32.36 31.12 29.20 27.80 27.31 27.31 27.39 27.22 27.39 27.88 28.68 28.53 29.00 29.41 29.20 28.76 28.63 28.68 28.71 28.59 28.43 28.21 28.09 30.21 31.56 32.53 33.66 32.66 31.05 29.28 28.09 28.36 28.70 29.20 29.81 30.37 30.52 30.20 29.40 29.80 29.79 29.32 28.11 27.13
32.12 31.80 31.17 30.14 29.96 29.93 29.75 29.02 28.83 29.17 29.92 30.94 31.46 31.67 31.19 30.02 29.80 29.48 29.07 28.53 28.93 29.99 31.23 32.62 29.99 28.50 27.64 27.22 27.42 27.66 27.79 27.55 27.70 27.67 27.74 28.15 28.35 28.50 28.52 28.48 28.68 28.79 28.79 28.68 28.62 28.26 28.12 28.50 30.07 30.60 30.82 31.32 31.64 31.06 29.88 28.35 27.68 27.71 28.08 28.49 29.75 30.04 29.77 29.37 29.00 28.76 28.22 27.23 26.27
31.49 30.85 29.99 29.14 28.96 28.93 28.85 28.43 28.89 29.88 30.85 30.97 30.76 30.41 29.91 29.37 29.29 29.15 29.15 29.63 31.31 31.55 30.72 29.40 27.73 26.70 26.20 26.27 26.91 27.36 27.70 27.89 28.24 28.10 27.79 28.00 28.59 28.70 28.57 28.60 28.78 28.83 28.85 28.69 28.52 27.96 27.67 28.60 29.67 30.02 30.17 30.69 30.67 30.19 29.24 27.78 27.28 26.96 27.16 27.82 28.90 29.20 29.05 28.70 28.11 27.58 27.01 26.37 25.86
31.70 30.41 29.37 29.22 28.65 28.55 28.32 27.53 28.25 29.25 29.93 30.18 29.37 28.95 29.85 32.92 31.40 30.05 29.70 31.35 31.72 30.31 28.31 27.20 26.29 25.79 25.78 26.24 26.91 27.35 27.48 27.61 27.88 27.81 28.09 29.42 29.83 29.19 28.35 28.45 28.44 28.50 28.66 28.54 28.44 27.78 27.51 28.30 28.94 29.05 28.91 29.08 28.68 28.13 27.50 26.79 26.56 26.22 26.61 28.49 28.82 28.31 27.70 27.60 27.19 26.75 26.44 26.67 26.09
31.86 30.57 29.86 29.84 29.16 29.32 29.25 27.97 29.00 29.50 29.54 29.29 28.61 28.24 29.16 32.21 30.78 30.06 29.97 30.31 28.63 27.52 26.79 26.15 25.67 25.86 26.45 26.99 27.35 27.66 27.70 27.10 27.21 27.30 27.59 28.21 29.05 28.49 27.66 27.51 27.49 27.68 27.86 27.75 27.79 27.72 27.94 28.49 28.50 28.06 27.71 27.90 27.50 27.10 26.66 26.14 25.89 25.46 25.58 26.82 27.18 26.93 26.63 26.83 26.79 26.55 26.50 26.63 25.93
31.14 30.03 29.28 28.81 28.39 28.75 29.10 28.89 29.19 29.41 29.48 29.29 28.98 28.24 27.55 27.91 27.55 28.43 28.95 27.25 26.86 26.90 26.72 25.76 25.65 26.07 26.75 27.53 27.39 28.31 28.63 26.54 26.45 26.98 27.50 27.37 27.02 26.89 26.86 26.81 26.95 26.97 27.01 26.82 26.94 27.52 28.02 28.01 27.68 27.39 27.04 26.60 27.04 27.20 26.88 26.03 25.55 25.19 25.23 25.59 25.87 26.09 26.34 26.80 26.88 27.19 27.26 26.95 26.36
30.27 29.44 28.70 27.93 27.77 28.30 28.91 29.13 28.46 28.29 28.41 28.58 28.20 27.56 26.94 26.50 26.79 27.41 27.45 25.96 27.60 27.58 26.81 26.08 26.66 26.81 26.79 27.28 27.01 26.81 26.72 26.42 26.18 26.98 27.68 27.28 26.91 26.66 26.53 26.58 26.76 26.74 26.69 26.45 26.63 26.98 27.33 27.11 26.57 26.25 25.96 25.59 26.84 27.10 26.63 25.64 25.14 25.21 25.49 25.74 25.87 26.18 26.47 26.78 26.97 27.04 26.86 26.30 26.76
29.58 29.11 28.52 27.76 27.86 28.46 29.01 29.07 28.55 28.00 27.67 27.55 27.06 26.49 26.00 25.33 26.41 26.95 26.82 25.74 26.93 26.82 26.18 25.82 27.90 28.58 28.24 27.16 26.81 26.55 26.30 25.98 25.87 26.00 26.38 27.02 26.68 26.42 26.34 26.48 26.53 26.50 26.40 26.45 26.64 26.55 26.35 26.26 25.95 25.59 25.34 25.18 26.18 26.12 25.70 25.17 25.07 25.27 25.77 26.19 26.59 26.91 27.27 27.43 27.10 26.74 26.36 26.09 26.76
29.32 28.58 27.82 27.43 27.75 28.25 28.63 28.74 28.82 28.31 27.75 27.31 26.54 25.66 24.97 24.71 26.46 27.32 27.09 25.43 25.63 25.40 25.07 25.21 26.90 28.44 29.00 27.73 26.61 25.95 25.65 25.43 25.53 25.77 26.21 26.95 26.43 26.21 26.21 26.43 26.40 26.31 26.13 26.02 26.09 26.04 25.90 25.80 25.41 25.11 24.93 24.94 25.50 25.57 25.37 25.00 25.00 25.45 25.99 26.28 26.68 27.04 27.41 27.51 27.25 27.03 26.83 26.64 26.97
29.19 28.10 27.33 27.41 27.80 28.06 28.12 27.87 27.84 27.65 27.39 27.07 25.97 24.97 24.38 24.55 25.57 27.06 27.59 25.96 25.24 24.88 25.03 25.82 26.26 26.36 26.97 28.74 27.93 26.66 25.62 25.46 25.65 25.86 26.19 26.38 26.48 26.57 26.53 26.53 26.67 26.55 26.19 25.58 25.49 25.46 25.40 25.33 25.29 25.05 24.80 24.68 25.09 25.35 25.38 25.29 25.37 25.46 25.74 26.09 26.44 26.87 27.23 27.64 27.84 27.77 27.65 27.55 27.70
28.88 27.65 26.97 27.28 27.89 28.05 27.63 26.80 26.33 26.31 26.32 26.16 25.34 24.75 24.50 24.53 24.87 27.07 29.07 28.62 26.56 26.10 26.32 26.45 26.09 25.91 26.50 28.16 28.96 28.37 27.14 26.14 26.21 26.45 26.74 27.02 27.13 27.06 26.98 26.80 27.07 26.81 26.16 25.37 25.19 25.26 25.24 25.20 25.24 24.99 24.57 24.27 24.75 25.16 25.40 25.45 25.86 26.03 26.22 26.53 26.79 26.96 27.40 28.55 28.88 28.68 28.35 28.11 28.54
28.57 27.17 26.49 27.07 27.76 27.72 27.10 25.99 25.48 25.43 25.51 25.51 25.12 24.66 24.37 24.22 24.88 26.34 27.94 29.12 27.04 26.74 27.06 26.97 25.94 25.87 26.25 26.77 26.90 28.05 28.74 27.29 27.00 26.93 26.99 27.01 26.93 26.77 26.64 26.58 27.06 26.62 25.83 24.88 24.72 25.07 25.55 25.74 25.37 25.17 24.89 24.73 24.95 25.36 25.68 25.86 26.38 26.56 26.79 27.18 27.39 27.50 27.72 28.30 28.42 28.57 28.63 28.45 29.25
28.39 27.27 26.78 27.20 27.31 27.24 27.30 27.73 26.71 25.93 25.43 25.07 24.72 24.35 24.03 23.86 24.30 24.74 25.28 26.13 27.17 27.29 27.00 27.03 26.25 26.02 26.19 26.59 25.94 27.50 29.16 28.74 27.55 26.93 26.63 26.37 26.11 25.85 25.82 26.02 26.21 25.87 25.14 24.26 24.20 24.58 25.02 25.43 25.37 25.19 25.23 25.70 25.66 25.84 26.11 26.29 26.88 27.24 27.46 27.68 27.80 27.97 28.05 28.12 28.21 28.51 28.85 28.80 29.34
28.61 27.99 27.64 27.24 26.77 26.58 26.91 27.95 26.99 25.87 24.88 24.23 24.09 24.27 24.35 23.90 23.96 24.73 25.50 25.62 27.26 26.78 25.85 26.01 26.16 26.28 26.33 26.30 26.03 26.61 27.73 28.97 27.58 26.83 26.41 26.10 25.78 25.63 25.64 25.75 25.64 25.26 24.66 23.79 23.62 23.92 24.44 24.93 25.11 25.15 25.24 25.46 25.86 26.21 26.43 26.81 27.27 27.52 27.82 28.32 28.40 28.41 28.55 28.72 28.80 28.76 28.67 28.66 28.69
28.74 28.24 27.63 26.60 25.96 25.65 25.60 25.56 25.02 24.48 24.06 23.87 24.23 24.54 24.63 24.09 24.32 25.06 26.10 27.03 26.95 25.87 24.97 25.34 25.76 26.07 26.30 26.25 26.26 26.22 26.83 28.92 27.66 26.87 26.43 26.25 26.32 26.33 26.30 26.22 25.62 25.37 25.02 23.86 23.53 23.56 23.91 24.71 24.90 25.12 25.24 25.36 26.02 26.54 27.02 27.59 27.89 27.93 28.14 28.89 29.21 29.22 29.02 29.15 29.01 28.79 28.69 28.74 29.13
28.41 27.39 26.32 25.36 24.83 24.57 24.30 23.77 23.45 23.48 23.64 23.99 24.21 24.35 24.53 24.53 24.93 25.08 25.36 25.98 25.69 25.28 25.05 25.33 25.60 25.84 25.98 26.16 26.38 26.28 26.64 28.11 27.03 26.50 26.27 26.06 26.51 26.66 26.68 26.45 25.30 24.67 24.22 23.50 23.18 23.20 23.60 24.22 24.54 24.71 24.96 25.76 26.12 26.76 27.45 28.12 28.41 28.54 28.67 28.98 29.17 29.27 29.10 28.84 28.91 28.86 28.86 29.08 29.47
27.47 25.86 24.67 23.91 24.09 25.60 26.52 24.83 23.45 23.36 23.86 24.30 24.35 24.53 24.75 25.02 24.80 24.48 24.12 24.03 25.71 25.98 25.62 25.40 25.53 25.56 25.60 25.60 25.60 25.56 25.65 26.00 25.91 25.84 25.62 25.11 25.30 25.33 25.13 24.82 24.10 23.56 23.65 24.66 23.74 23.12 23.18 24.19 24.88 25.28 25.78 26.67 26.59 27.11 27.76 28.09 28.74 29.04 29.13 29.12 29.18 28.93 28.58 28.22 28.21 28.29 28.68 29.56 29.91
26.04 24.98 24.18 23.66 23.59 24.25 24.70 23.95 23.71 24.21 24.90 25.39 25.21 25.20 25.20 25.15 24.66 24.34 24.28 24.28 24.95 25.05 25.04 25.33 25.69 25.56 25.19 24.74 24.47 24.47 24.56 24.75 25.39 25.65 25.37 24.72 24.48 24.19 23.91 23.66 23.49 23.83 24.60 25.64 26.54 26.95 27.69 29.22 28.74 28.58 28.55 28.41 28.31 28.36 28.71 28.97 29.28 29.45 29.38 29.11 28.99 28.69 28.29 27.89 27.30 28.00 29.08 29.38 30.45
25.01 25.20 25.30 24.10 23.87 23.65 23.62 23.90 24.90 25.59 25.95 25.71 25.21 25.02 25.02 25.11 25.01 24.86 24.89 25.08 25.14 25.01 24.83 24.78 24.82 24.73 24.50 24.37 24.02 23.84 23.77 23.90 24.46 24.81 24.95 24.79 24.48 24.05 23.82 23.87 24.53 25.14 26.13 28.07 32.76 35.86 37.24 37.25 35.24 33.27 31.51 30.10 29.65 29.97 30.39 30.54 30.34 30.18 29.96 29.78 29.34 29.10 28.66 28.05 27.60 28.30 29.29 29.46 30.18
24.35 24.78 25.07 24.25 24.11 24.12 24.44 24.86 25.47 25.74 25.59 24.99 24.75 24.88 25.15 25.28 25.72 25.40 24.99 25.41 25.38 25.11 24.75 24.66 24.35 25.65 26.81 26.29 25.28 24.66 24.27 24.16 24.09 24.08 24.36 24.97 24.54 24.12 24.08 24.55 26.28 25.71 26.02 30.27 35.19 37.84 39.04 39.58 39.49 37.75 34.86 31.17 30.91 31.22 31.59 31.51 31.06 30.63 30.17 29.50 29.33 28.92 28.60 28.82 28.74 29.08 29.66 30.07 31.24
24.41 24.54 24.48 23.99 24.27 24.69 24.92 24.69 24.86 25.04 25.12 25.11 25.42 25.60 25.45 24.86 24.84 24.76 24.78 25.02 24.93 24.57 24.35 24.53 24.42 27.26 29.39 27.26 25.80 25.14 24.94 24.86 24.40 23.99 23.76 23.87 23.82 24.01 24.67 25.96 26.32 26.21 27.70 32.66 36.58 38.53 39.30 39.71 40.01 39.57 37.95 34.32 32.66 32.04 31.91 31.67 30.65 29.93 29.37 28.91 28.67 28.35 28.09 28.06 28.38 28.96 29.66 30.12 31.17
25.04 24.69 24.28 24.23 24.88 25.06 24.82 24.27 24.99 25.57 25.84 25.87 25.87 25.63 25.22 24.58 24.37 24.34 24.35 24.35 24.09 24.02 24.24 24.61 25.66 26.55 26.59 25.21 24.93 24.77 24.64 24.45 24.40 24.09 23.65 23.21 23.43 23.65 24.35 25.89 25.81 27.42 30.93 35.91 37.90 38.91 39.32 39.50 39.76 39.80 39.25 37.63 34.72 32.72 31.54 31.02 30.82 30.37 29.78 29.22 28.69 28.30 28.07 28.16 28.89 29.10 29.25 29.61 29.92
24.89 24.70 24.79 25.43 25.87 25.50 25.17 25.33 26.25 26.61 26.46 25.87 25.41 25.04 24.73 24.32 24.08 23.99 23.87 23.84 23.97 24.35 24.75 24.85 26.58 26.03 24.72 24.46 24.57 24.45 24.13 23.98 24.00 24.00 23.78 23.34 23.40 23.75 24.54 25.51 25.90 28.63 32.73 37.19 38.23 38.75 39.03 39.25 39.46 39.68 39.64 39.20 36.74 34.55 32.82 31.70 31.34 30.78 30.09 29.60 28.95 28.58 28.43 28.53 29.23 29.62 29.62 29.24 28.63
24.40 24.79 25.34 26.14 26.14 26.04 26.06 26.42 26.64 26.36 25.81 25.12 24.73 24.29 23.99 23.86 23.75 23.55 23.52 23.77 23.90 24.62 25.24 25.04 24.95 24.58 24.31 24.50 24.57 24.53 24.44 24.41 24.25 24.00 23.69 23.12 23.43 24.10 25.34 27.40 26.95 28.94 32.56 36.88 37.88 38.49 38.78 39.05 39.27 39.52 39.56 39.57 37.82 35.42 33.02 31.22 30.29 29.65 29.33 29.30 28.14 27.56 27.51 28.19 28.23 28.43 28.59 28.49 27.69
24.16 24.70 25.62 26.49 26.41 26.41 26.40 26.10 25.60 24.97 24.47 24.10 23.68 23.51 23.49 23.73 23.77 23.71 23.62 23.47 23.75 25.15 26.07 24.84 23.80 23.55 23.78 23.91 24.13 24.20 24.22 24.25 24.09 23.85 23.49 22.96 25.70 26.97 27.19 26.88 25.47 27.76 32.01 36.35 37.58 38.33 38.70 38.93 39.18 39.35 39.44 39.52 38.00 35.61 32.92 30.94 29.90 29.10 28.53 28.37 27.41 27.05 27.31 28.02 27.73 27.58 27.53 27.38 27.95
24.27 24.85 25.84 27.11 26.79 26.42 25.92 25.12 24.32 23.73 23.33 23.00 22.84 23.01 23.22 23.43 23.27 23.01 22.87 23.21 24.01 24.21 23.99 23.34 23.12 23.22 23.38 23.42 23.50 23.63 23.76 23.97 24.13 24.41 24.66 24.81 25.21 25.19 25.41 26.44 25.05 27.42 31.77 36.26 37.57 38.27 38.60 38.82 39.02 39.14 39.23 39.24 38.12 35.28 32.13 30.26 29.15 28.38 27.69 27.13 26.97 26.78 27.00 28.09 27.89 27.53 27.25 27.67 28.60
24.35 24.75 25.54 26.70 26.54 26.04 25.20 24.25 23.45 22.78 22.34 22.18 22.24 22.52 22.85 22.70 22.15 21.67 21.66 22.60 23.65 23.34 22.81 23.04 23.26 23.51 23.83 24.05 24.19 24.27 24.46 24.89 25.47 26.65 27.69 27.83 26.45 25.45 25.33 26.63 25.96 28.92 33.37 36.75 37.74 38.29 38.51 38.65 38.73 38.85 38.94 39.03 37.55 34.37 30.96 29.07 28.75 28.40 27.87 27.22 26.78 26.65 26.74 27.12 27.55 27.67 27.96 28.72 29.09
24.57 24.85 25.25 25.93 26.40 25.71 24.47 23.51 22.57 21.96 21.70 21.81 21.87 22.06 22.13 21.97 21.94 21.98 22.54 23.82 23.37 22.65 22.36 23.05 23.64 24.02 24.37 24.68 25.03 25.12 25.82 27.63 27.35 26.46 25.61 25.11 24.24 24.03 24.57 25.81 27.00 30.74 34.79 37.05 37.80 38.11 38.29 38.39 38.44 38.52 38.65 38.74 36.46 33.09 29.85 27.95 27.89 27.77 27.53 27.03 26.82 27.00 27.49 28.38 28.03 28.20 28.55 28.86 29.00
25.12 25.39 25.52 25.29 25.11 24.46 23.59 22.73 21.70 21.32 21.42 21.86 21.94 21.86 21.61 21.35 21.86 22.35 23.33 25.39 24.98 23.50 22.16 22.38 22.98 23.50 23.82 23.95 24.32 24.79 25.62 26.97 26.59 25.78 24.88 24.11 23.52 23.96 24.86 25.71 26.94 30.70 34.72 36.80 37.44 37.76 37.95 38.05 38.15 38.24 38.20 37.80 34.73 31.56 28.86 27.35 27.01 26.86 26.57 25.95 26.28 26.72 27.32 28.39 28.58 28.48 28.22 27.96 27.88
25.56 25.98 25.94 25.27 24.40 23.67 22.95 22.22 21.33 21.03 21.24 21.79 22.14 22.06 21.83 21.44 21.45 21.89 23.26 26.33 25.89 24.41 22.99 22.73 22.82 23.16 23.57 23.66 23.69 25.02 26.30 26.08 25.95 25.64 25.21 24.98 24.50 24.49 24.84 25.33 25.84 29.43 33.62 36.25 36.91 37.34 37.57 37.72 37.89 37.99 37.62 36.22 32.83 30.17 28.34 27.55 26.96 26.37 25.69 24.95 25.81 26.43 27.10 28.21 28.50 28.30 27.75 27.14 27.09
25.49 25.78 25.78 25.29 24.56 23.73 22.83 21.87 21.32 21.26 21.57 21.95 22.11 22.25 22.32 22.29 21.94 21.75 22.66 25.71 24.19 23.47 23.22 23.31 23.50 23.79 24.29 24.61 24.85 25.71 26.27 25.59 25.33 25.45 25.86 26.81 26.16 25.66 25.41 25.71 25.26 27.78 31.73 35.19 36.25 36.90 37.23 37.46 37.60 37.61 36.70 34.44 31.30 29.22 28.06 27.47 26.81 26.17 25.64 25.46 26.07 26.62 27.40 28.64 28.50 28.06 27.28 26.19 27.25
25.05 25.10 25.27 25.15 24.69 23.87 22.78 21.61 21.46 21.75 22.08 22.31 22.04 22.01 22.16 22.39 22.63 22.41 23.21 26.48 24.39 23.62 23.66 23.75 24.01 24.48 24.98 25.45 25.77 25.80 25.51 24.93 25.40 25.83 26.14 26.62 26.13 25.70 25.41 25.52 25.17 26.93 30.20 34.15 35.78 36.52 36.94 37.13 37.31 37.20 36.19 33.59 30.62 29.11 28.35 27.71 26.56 26.25 26.57 26.92 27.32 27.63 28.06 28.98 28.94 28.52 27.64 26.33 30.21
24.69 24.49 24.62 24.78 24.38 23.75 22.89 21.95 21.91 22.19 22.56 22.82 22.47 22.25 22.16 22.28 22.84 23.66 24.96 27.11 24.98 24.27 24.36 24.60 25.02 25.52 26.09 26.89 26.81 26.34 25.68 25.00 25.59 26.42 26.90 26.38 26.27 27.28 28.05 27.39 26.53 27.50 30.09 33.97 35.52 36.26 36.55 36.71 36.89 36.98 36.33 34.47 31.27 29.58 28.85 28.41 26.96 26.65 26.97 27.28 28.02 28.18 28.23 28.66 28.42 28.42 28.29 27.79 32.57
24.05 23.67 23.56 23.55 23.69 23.43 23.08 22.53 22.60 22.76 22.94 23.22 23.35 23.14 23.10 23.36 24.52 25.73 26.61 26.41 24.75 24.34 24.68 25.11 25.62 26.19 27.21 28.98 28.21 26.94 25.93 26.00 25.29 25.76 26.59 26.95 27.58 29.96 31.62 30.31 28.20 27.88 29.60 33.17 34.76 35.60 35.98 36.23 36.46 36.69 36.27 34.46 31.25 29.93 29.64 29.60 28.63 28.28 28.21 28.25 28.67 28.87 28.79 28.51 28.54 28.87 29.22 29.19 32.13
22.84 22.75 22.92 23.07 22.83 22.84 22.92 23.08 23.12 23.07 23.01 23.14 23.32 23.77 24.55 25.76 25.87 25.97 25.62 24.71 24.17 24.40 25.05 25.81 25.93 26.11 26.92 28.76 28.38 27.25 26.13 26.38 26.31 25.96 26.14 27.44 27.99 29.95 31.30 29.74 27.59 26.54 27.10 29.77 32.73 34.45 35.29 35.75 36.19 36.52 36.23 34.86 31.78 30.51 30.27 30.43 30.17 29.45 28.78 28.77 29.01 28.92 28.73 28.55 29.05 29.74 30.36 30.25 30.83
MSLP
1023.54 1023.66 1023.74 1023.82 1024.02 1024.22 1024.34 1024.38 1024.42 1024.46 1024.62 1024.86 1025.06 1025.26 1025.38 1025.50 1025.62 1025.70 1025.78 1025.82 1025.86 1025.86 1025.86 1025.86 1025.86 1025.82 1025.82 1025.90 1025.90 1025.94 1025.98 1025.98 1025.98 1025.98 1025.94 1025.98 1025.98 1025.98 1025.98 1025.94 1025.94 1025.94 1025.94 1025.90 1025.90 1025.94 1025.94 1025.94 1025.94 1025.90 1025.86 1025.82 1025.82 1025.82 1025.82 1025.70 1025.70 1025.70 1025.74 1025.70 1025.70 1025.66 1025.66 1025.66 1025.58 1025.54 1025.46 1025.42 1025.30
1023.54 1023.66 1023.70 1023.82 1023.98 1024.14 1024.26 1024.30 1024.42 1024.54 1024.66 1024.78 1024.90 1025.06 1025.22 1025.38 1025.50 1025.62 1025.70 1025.74 1025.74 1025.74 1025.78 1025.78 1025.78 1025.82 1025.86 1025.86 1025.86 1025.90 1025.94 1025.94 1025.94 1025.94 1025.94 1025.94 1025.94 1025.90 1025.90 1025.86 1025.86 1025.86 1025.82 1025.82 1025.86 1025.86 1025.86 1025.86 1025.86 1025.86 1025.82 1025.78 1025.78 1025.78 1025.70 1025.66 1025.66 1025.66 1025.70 1025.66 1025.58 1025.54 1025.54 1025.54 1025.46 1025.38 1025.30 1025.26 1025.18
1023.54 1023.62 1023.70 1023.90 1024.02 1024.14 1024.26 1024.38 1024.46 1024.54 1024.70 1024.86 1024.94 1025.02 1025.14 1025.26 1025.42 1025.54 1025.58 1025.62 1025.70 1025.70 1025.74 1025.78 1025.78 1025.82 1025.86 1025.86 1025.86 1025.86 1025.82 1025.82 1025.86 1025.86 1025.86 1025.86 1025.86 1025.82 1025.82 1025.82 1025.82 1025.78 1025.74 1025.74 1025.78 1025.78 1025.82 1025.82 1025.82 1025.78 1025.70 1025.70 1025.74 1025.74 1025.66 1025.54 1025.54 1025.54 1025.54 1025.54 1025.46 1025.42 1025.42 1025.38 1025.26 1025.22 1025.18 1025.14 1025.10
1023.54 1023.62 1023.78 1023.90 1023.98 1024.06 1024.14 1024.22 1024.38 1024.50 1024.66 1024.78 1024.94 1025.06 1025.14 1025.26 1025.34 1025.42 1025.54 1025.58 1025.66 1025.70 1025.70 1025.70 1025.74 1025.74 1025.74 1025.78 1025.82 1025.82 1025.82 1025.78 1025.82 1025.82 1025.82 1025.78 1025.78 1025.78 1025.74 1025.74 1025.74 1025.70 1025.70 1025.70 1025.70 1025.70 1025.70 1025.74 1025.74 1025.70 1025.66 1025.70 1025.70 1025.70 1025.58 1025.46 1025.46 1025.46 1025.46 1025.42 1025.38 1025.34 1025.30 1025.22 1025.14 1025.10 1025.06 1024.98 1024.94
1023.54 1023.62 1023.70 1023.74 1023.82 1023.86 1023.94 1024.02 1024.18 1024.42 1024.58 1024.70 1024.90 1025.10 1025.22 1025.26 1025.34 1025.42 1025.54 1025.58 1025.62 1025.62 1025.62 1025.66 1025.70 1025.70 1025.70 1025.70 1025.78 1025.82 1025.82 1025.78 1025.70 1025.70 1025.74 1025.74 1025.70 1025.70 1025.70 1025.66 1025.62 1025.62 1025.62 1025.62 1025.62 1025.66 1025.66 1025.66 1025.62 1025.58 1025.58 1025.62 1025.62 1025.54 1025.50 1025.42 1025.42 1025.42 1025.38 1025.26 1025.26 1025.22 1025.18 1025.14 1025.02 1024.98 1024.94 1024.86 1024.82
1023.46 1023.54 1023.66 1023.70 1023.74 1023.82 1023.94 1023.98 1024.14 1024.30 1024.50 1024.70 1024.86 1025.06 1025.22 1025.26 1025.34 1025.42 1025.50 1025.54 1025.54 1025.54 1025.54 1025.58 1025.58 1025.58 1025.62 1025.70 1025.74 1025.82 1025.82 1025.78 1025.70 1025.74 1025.74 1025.70 1025.62 1025.62 1025.62 1025.54 1025.54 1025.54 1025.54 1025.54 1025.54 1025.54 1025.54 1025.58 1025.54 1025.54 1025.54 1025.50 1025.46 1025.42 1025.38 1025.38 1025.42 1025.42 1025.34 1025.26 1025.14 1025.10 1025.06 1025.02 1024.90 1024.86 1024.82 1024.78 1024.74
1023.34 1023.54 1023.66 1023.74 1023.82 1023.82 1023.94 1024.02 1024.14 1024.26 1024.46 1024.62 1024.86 1025.02 1025.14 1025.26 1025.30 1025.38 1025.42 1025.46 1025.50 1025.54 1025.54 1025.50 1025.54 1025.54 1025.62 1025.70 1025.74 1025.78 1025.78 1025.74 1025.70 1025.70 1025.66 1025.58 1025.54 1025.54 1025.54 1025.50 1025.46 1025.42 1025.42 1025.46 1025.50 1025.50 1025.54 1025.54 1025.54 1025.54 1025.46 1025.42 1025.38 1025.34 1025.30 1025.34 1025.34 1025.34 1025.30 1025.22 1025.06 1024.98 1024.98 1024.94 1024.82 1024.74 1024.74 1024.70 1024.70
1023.30 1023.46 1023.58 1023.70 1023.78 1023.82 1023.90 1024.02 1024.14 1024.26 1024.46 1024.62 1024.78 1024.94 1025.06 1025.14 1025.26 1025.26 1025.30 1025.42 1025.42 1025.46 1025.42 1025.42 1025.54 1025.58 1025.66 1025.70 1025.70 1025.70 1025.70 1025.70 1025.62 1025.58 1025.54 1025.54 1025.50 1025.46 1025.46 1025.42 1025.42 1025.42 1025.42 1025.42 1025.42 1025.50 1025.50 1025.54 1025.54 1025.54 1025.46 1025.42 1025.34 1025.26 1025.22 1025.26 1025.26 1025.30 1025.26 1025.18 1024.98 1024.86 1024.86 1024.78 1024.70 1024.70 1024.70 1024.66 1024.58
1023.42 1023.54 1023.62 1023.70 1023.74 1023.82 1023.90 1023.98 1024.06 1024.22 1024.42 1024.58 1024.74 1024.86 1024.94 1024.98 1025.14 1025.18 1025.22 1025.30 1025.30 1025.34 1025.42 1025.46 1025.54 1025.54 1025.62 1025.70 1025.70 1025.66 1025.58 1025.54 1025.50 1025.50 1025.46 1025.46 1025.42 1025.42 1025.42 1025.42 1025.42 1025.42 1025.38 1025.38 1025.42 1025.50 1025.50 1025.50 1025.46 1025.42 1025.42 1025.34 1025.30 1025.26 1025.18 1025.18 1025.22 1025.22 1025.18 1025.06 1024.90 1024.78 1024.70 1024.62 1024.62 1024.54 1024.54 1024.50 1024.42
1023.42 1023.54 1023.66 1023.74 1023.82 1023.82 1023.90 1023.98 1024.06 1024.18 1024.34 1024.54 1024.70 1024.82 1024.86 1024.90 1024.98 1025.06 1025.14 1025.22 1025.26 1025.30 1025.42 1025.46 1025.50 1025.54 1025.58 1025.62 1025.58 1025.54 1025.46 1025.42 1025.42 1025.42 1025.42 1025.38 1025.38 1025.42 1025.42 1025.42 1025.42 1025.42 1025.42 1025.38 1025.38 1025.42 1025.46 1025.46 1025.42 1025.38 1025.30 1025.26 1025.26 1025.22 1025.14 1025.14 1025.14 1025.14 1025.02 1024.90 1024.82 1024.70 1024.62 1024.54 1024.46 1024.42 1024.42 1024.30 1024.26
1023.34 1023.46 1023.58 1023.70 1023.78 1023.82 1023.86 1023.98 1024.14 1024.26 1024.38 1024.54 1024.66 1024.74 1024.82 1024.86 1024.94 1024.98 1025.06 1025.14 1025.30 1025.38 1025.42 1025.42 1025.42 1025.50 1025.50 1025.50 1025.46 1025.42 1025.34 1025.34 1025.34 1025.34 1025.34 1025.34 1025.34 1025.42 1025.42 1025.46 1025.42 1025.42 1025.42 1025.38 1025.38 1025.38 1025.42 1025.42 1025.42 1025.34 1025.26 1025.18 1025.14 1025.14 1025.10 1025.02 1025.02 1024.98 1024.90 1024.78 1024.70 1024.62 1024.54 1024.42 1024.30 1024.26 1024.22 1024.14 1024.06
1023.26 1023.42 1023.54 1023.62 1023.70 1023.78 1023.86 1023.98 1024.14 1024.26 1024.42 1024.54 1024.62 1024.70 1024.82 1024.86 1024.94 1024.98 1025.10 1025.22 1025.30 1025.30 1025.30 1025.30 1025.38 1025.38 1025.34 1025.30 1025.26 1025.22 1025.18 1025.26 1025.30 1025.30 1025.30 1025.34 1025.34 1025.34 1025.38 1025.42 1025.42 1025.42 1025.38 1025.34 1025.34 1025.34 1025.34 1025.34 1025.34 1025.26 1025.22 1025.14 1025.06 1024.98 1024.98 1024.94 1024.90 1024.86 1024.78 1024.66 1024.54 1024.50 1024.42 1024.26 1024.14 1024.06 1023.98 1023.94 1023.82
1023.26 1023.42 1023.54 1023.62 1023.70 1023.74 1023.82 1023.98 1024.14 1024.26 1024.42 1024.54 1024.58 1024.70 1024.78 1024.86 1024.90 1024.98 1025.10 1025.18 1025.22 1025.22 1025.22 1025.22 1025.26 1025.22 1025.18 1025.14 1025.14 1025.14 1025.14 1025.18 1025.26 1025.26 1025.30 1025.30 1025.30 1025.30 1025.34 1025.30 1025.30 1025.30 1025.26 1025.26 1025.26 1025.26 1025.26 1025.26 1025.26 1025.22 1025.14 1025.06 1024.94 1024.86 1024.82 1024.82 1024.78 1024.70 1024.62 1024.50 1024.42 1024.34 1024.22 1024.06 1023.94 1023.82 1023.82 1023.74 1023.66
1023.26 1023.42 1023.54 1023.62 1023.70 1023.74 1023.82 1023.98 1024.14 1024.26 1024.38 1024.54 1024.58 1024.66 1024.74 1024.86 1024.86 1024.94 1025.02 1025.10 1025.10 1025.10 1025.14 1025.14 1025.10 1025.06 1025.02 1025.02 1025.02 1025.06 1025.10 1025.14 1025.18 1025.26 1025.26 1025.26 1025.26 1025.26 1025.26 1025.26 1025.22 1025.18 1025.14 1025.14 1025.14 1025.14 1025.14 1025.14 1025.10 1025.06 1025.02 1024.98 1024.82 1024.70 1024.66 1024.62 1024.62 1024.54 1024.46 1024.38 1024.26 1024.14 1023.98 1023.86 1023.74 1023.66 1023.62 1023.54 1023.46
1023.26 1023.42 1023.50 1023.58 1023.70 1023.74 1023.82 1023.98 1024.10 1024.22 1024.34 1024.50 1024.58 1024.70 1024.74 1024.82 1024.86 1024.86 1024.90 1024.98 1024.98 1024.98 1024.98 1024.98 1024.98 1024.90 1024.86 1024.90 1024.94 1024.98 1025.06 1025.14 1025.14 1025.18 1025.22 1025.18 1025.18 1025.18 1025.18 1025.14 1025.10 1025.06 1025.06 1025.02 1025.02 1024.98 1024.98 1024.98 1024.94 1024.86 1024.86 1024.82 1024.70 1024.54 1024.50 1024.46 1024.42 1024.30 1024.26 1024.14 1024.06 1023.90 1023.78 1023.66 1023.54 1023.50 1023.42 1023.34 1023.26
1023.26 1023.42 1023.54 1023.58 1023.66 1023.74 1023.82 1023.98 1024.06 1024.18 1024.30 1024.46 1024.54 1024.66 1024.70 1024.74 1024.78 1024.78 1024.82 1024.82 1024.86 1024.86 1024.86 1024.82 1024.82 1024.86 1024.86 1024.82 1024.86 1024.94 1024.98 1025.06 1025.10 1025.14 1025.14 1025.14 1025.14 1025.10 1025.06 1025.02 1024.98 1024.98 1024.94 1024.94 1024.90 1024.86 1024.78 1024.74 1024.70 1024.70 1024.66 1024.58 1024.50 1024.42 1024.30 1024.26 1024.18 1024.10 1023.98 1023.90 1023.82 1023.70 1023.54 1023.42 1023.34 1023.26 1023.22 1023.14 1023.06
1023.26 1023.42 1023.46 1023.54 1023.58 1023.70 1023.82 1023.94 1024.06 1024.18 1024.30 1024.42 1024.50 1024.54 1024.62 1024.66 1024.70 1024.70 1024.62 1024.62 1024.66 1024.70 1024.70 1024.70 1024.70 1024.70 1024.74 1024.78 1024.78 1024.86 1024.90 1024.98 1024.98 1025.02 1025.02 1025.02 1025.02 1024.98 1024.94 1024.90 1024.86 1024.82 1024.82 1024.82 1024.78 1024.70 1024.62 1024.54 1024.50 1024.46 1024.42 1024.42 1024.30 1024.22 1024.14 1024.02 1023.98 1023.86 1023.74 1023.62 1023.54 1023.42 1023.30 1023.22 1023.14 1023.02 1022.98 1022.86 1022.78
1023.30 1023.38 1023.42 1023.46 1023.54 1023.66 1023.78 1023.90 1024.06 1024.14 1024.26 1024.34 1024.42 1024.42 1024.46 1024.50 1024.54 1024.54 1024.54 1024.50 1024.50 1024.58 1024.62 1024.62 1024.70 1024.70 1024.70 1024.70 1024.74 1024.78 1024.82 1024.86 1024.86 1024.86 1024.86 1024.86 1024.86 1024.86 1024.86 1024.78 1024.70 1024.66 1024.62 1024.62 1024.62 1024.54 1024.50 1024.38 1024.30 1024.26 1024.22 1024.14 1024.10 1023.98 1023.86 1023.78 1023.70 1023.62 1023.50 1023.38 1023.26 1023.14 1023.06 1022.98 1022.86 1022.82 1022.74 1022.66 1022.50
1023.26 1023.34 1023.38 1023.42 1023.50 1023.58 1023.66 1023.78 1023.94 1024.06 1024.14 1024.18 1024.26 1024.30 1024.34 1024.38 1024.38 1024.42 1024.42 1024.42 1024.42 1024.42 1024.54 1024.58 1024.58 1024.62 1024.62 1024.66 1024.70 1024.70 1024.66 1024.70 1024.70 1024.74 1024.74 1024.70 1024.70 1024.70 1024.70 1024.58 1024.54 1024.50 1024.50 1024.50 1024.46 1024.42 1024.30 1024.22 1024.14 1024.06 1023.98 1023.94 1023.82 1023.74 1023.66 1023.54 1023.46 1023.34 1023.22 1023.14 1023.02 1022.90 1022.82 1022.70 1022.62 1022.54 1022.42 1022.34 1022.26
1023.14 1023.26 1023.26 1023.34 1023.42 1023.50 1023.58 1023.70 1023.78 1023.90 1023.98 1024.02 1024.14 1024.18 1024.22 1024.26 1024.26 1024.26 1024.26 1024.34 1024.34 1024.38 1024.42 1024.54 1024.54 1024.54 1024.54 1024.54 1024.58 1024.54 1024.54 1024.54 1024.58 1024.58 1024.58 1024.58 1024.54 1024.54 1024.50 1024.46 1024.42 1024.38 1024.38 1024.34 1024.26 1024.22 1024.14 1024.02 1023.94 1023.86 1023.82 1023.70 1023.66 1023.54 1023.42 1023.30 1023.18 1023.10 1022.98 1022.86 1022.74 1022.66 1022.54 1022.42 1022.34 1022.22 1022.14 1022.06 1021.98
1023.06 1023.10 1023.14 1023.22 1023.30 1023.42 1023.54 1023.62 1023.70 1023.78 1023.86 1023.94 1023.98 1024.02 1024.06 1024.10 1024.14 1024.14 1024.14 1024.18 1024.26 1024.34 1024.42 1024.42 1024.46 1024.50 1024.50 1024.46 1024.50 1024.46 1024.42 1024.42 1024.46 1024.46 1024.46 1024.42 1024.42 1024.34 1024.30 1024.26 1024.26 1024.26 1024.22 1024.18 1024.14 1024.02 1023.94 1023.82 1023.74 1023.66 1023.58 1023.50 1023.42 1023.26 1023.14 1023.02 1022.98 1022.86 1022.70 1022.62 1022.50 1022.34 1022.22 1022.14 1022.02 1021.94 1021.86 1021.78 1021.70
1022.94 1022.98 1023.02 1023.14 1023.26 1023.38 1023.46 1023.54 1023.62 1023.70 1023.78 1023.82 1023.86 1023.86 1023.94 1023.98 1023.98 1024.02 1024.06 1024.14 1024.18 1024.26 1024.34 1024.34 1024.34 1024.38 1024.38 1024.38 1024.38 1024.38 1024.30 1024.26 1024.34 1024.34 1024.34 1024.30 1024.26 1024.18 1024.14 1024.14 1024.14 1024.14 1024.06 1024.02 1023.94 1023.82 1023.74 1023.66 1023.54 1023.42 1023.34 1023.26 1023.14 1023.02 1022.94 1022.82 1022.70 1022.58 1022.46 1022.34 1022.18 1022.06 1021.94 1021.82 1021.78 1021.70 1021.58 1021.50 1021.42
1022.82 1022.90 1023.02 1023.14 1023.22 1023.26 1023.38 1023.46 1023.58 1023.70 1023.70 1023.74 1023.78 1023.78 1023.82 1023.86 1023.94 1023.98 1024.02 1024.10 1024.14 1024.14 1024.18 1024.18 1024.18 1024.22 1024.22 1024.22 1024.26 1024.26 1024.26 1024.22 1024.22 1024.18 1024.14 1024.14 1024.14 1024.06 1024.02 1024.06 1024.02 1024.02 1023.94 1023.82 1023.74 1023.70 1023.58 1023.42 1023.26 1023.14 1023.06 1022.94 1022.86 1022.70 1022.66 1022.54 1022.46 1022.34 1022.26 1022.10 1021.94 1021.82 1021.70 1021.62 1021.54 1021.46 1021.38 1021.26 1021.18
1022.74 1022.86 1022.98 1023.10 1023.22 1023.26 1023.38 1023.46 1023.54 1023.58 1023.58 1023.62 1023.66 1023.70 1023.70 1023.78 1023.86 1023.94 1023.98 1023.98 1024.02 1024.02 1024.02 1024.06 1024.06 1024.06 1024.10 1024.14 1024.14 1024.18 1024.22 1024.18 1024.14 1024.10 1024.02 1023.98 1023.98 1023.98 1023.94 1023.94 1023.90 1023.82 1023.74 1023.62 1023.54 1023.46 1023.34 1023.14 1022.94 1022.78 1022.66 1022.58 1022.50 1022.42 1022.34 1022.26 1022.14 1022.06 1021.98 1021.82 1021.70 1021.58 1021.54 1021.42 1021.30 1021.26 1021.14 1020.98 1020.94
1022.70 1022.86 1022.94 1023.06 1023.18 1023.26 1023.34 1023.42 1023.42 1023.46 1023.50 1023.50 1023.54 1023.58 1023.66 1023.74 1023.82 1023.82 1023.86 1023.90 1023.90 1023.90 1023.94 1023.98 1023.98 1023.98 1023.98 1024.02 1024.06 1024.06 1024.10 1024.14 1024.10 1024.06 1023.98 1023.86 1023.82 1023.78 1023.78 1023.78 1023.70 1023.62 1023.50 1023.42 1023.18 1022.98 1022.74 1022.58 1022.42 1022.34 1022.26 1022.18 1022.14 1022.06 1021.98 1021.94 1021.82 1021.74 1021.70 1021.54 1021.46 1021.42 1021.30 1021.18 1021.10 1021.02 1020.94 1020.86 1020.70
1022.70 1022.86 1022.94 1023.02 1023.14 1023.22 1023.30 1023.30 1023.30 1023.34 1023.42 1023.46 1023.54 1023.54 1023.62 1023.66 1023.70 1023.74 1023.78 1023.78 1023.78 1023.78 1023.82 1023.82 1023.82 1023.82 1023.86 1023.86 1023.86 1023.90 1023.94 1023.94 1023.94 1023.94 1023.90 1023.82 1023.74 1023.70 1023.62 1023.58 1023.46 1023.42 1023.30 1023.14 1022.90 1022.66 1022.46 1022.26 1022.06 1021.98 1021.90 1021.86 1021.82 1021.78 1021.70 1021.58 1021.50 1021.42 1021.42 1021.34 1021.26 1021.18 1021.14 1021.02 1020.90 1020.78 1020.70 1020.58 1020.50
1022.74 1022.86 1022.94 1022.98 1023.10 1023.14 1023.22 1023.26 1023.26 1023.26 1023.34 1023.42 1023.46 1023.50 1023.54 1023.54 1023.62 1023.66 1023.70 1023.70 1023.70 1023.70 1023.70 1023.70 1023.70 1023.70 1023.70 1023.74 1023.82 1023.82 1023.82 1023.78 1023.74 1023.78 1023.74 1023.70 1023.70 1023.62 1023.50 1023.42 1023.26 1023.18 1023.10 1022.90 1022.66 1022.42 1022.22 1022.02 1021.82 1021.70 1021.62 1021.62 1021.54 1021.50 1021.42 1021.38 1021.26 1021.22 1021.14 1021.14 1021.06 1020.98 1020.94 1020.86 1020.74 1020.62 1020.50 1020.38 1020.26
1022.70 1022.78 1022.86 1022.94 1023.06 1023.14 1023.14 1023.18 1023.26 1023.26 1023.26 1023.30 1023.38 1023.42 1023.46 1023.50 1023.54 1023.58 1023.58 1023.62 1023.62 1023.62 1023.62 1023.58 1023.54 1023.58 1023.66 1023.70 1023.70 1023.70 1023.66 1023.58 1023.58 1023.58 1023.58 1023.54 1023.54 1023.46 1023.38 1023.22 1023.06 1022.94 1022.82 1022.58 1022.38 1022.14 1021.98 1021.82 1021.62 1021.50 1021.38 1021.30 1021.26 1021.22 1021.14 1021.10 1021.02 1020.98 1020.94 1020.90 1020.86 1020.82 1020.74 1020.66 1020.54 1020.46 1020.34 1020.18 1020.06
1022.58 1022.70 1022.82 1022.90 1022.98 1023.06 1023.10 1023.14 1023.14 1023.18 1023.18 1023.22 1023.26 1023.34 1023.42 1023.42 1023.50 1023.54 1023.54 1023.54 1023.54 1023.54 1023.54 1023.54 1023.50 1023.54 1023.62 1023.62 1023.58 1023.54 1023.54 1023.50 1023.46 1023.42 1023.42 1023.42 1023.38 1023.26 1023.18 1023.02 1022.90 1022.70 1022.54 1022.34 1022.14 1021.98 1021.78 1021.62 1021.46 1021.26 1021.14 1021.02 1020.98 1020.94 1020.90 1020.86 1020.82 1020.74 1020.70 1020.70 1020.70 1020.62 1020.54 1020.50 1020.38 1020.26 1020.14 1020.02 1019.90
1022.54 1022.66 1022.78 1022.86 1022.94 1022.98 1023.02 1023.06 1023.06 1023.06 1023.14 1023.18 1023.26 1023.26 1023.30 1023.38 1023.42 1023.46 1023.46 1023.50 1023.46 1023.42 1023.42 1023.42 1023.46 1023.54 1023.54 1023.50 1023.42 1023.42 1023.42 1023.34 1023.26 1023.26 1023.30 1023.26 1023.22 1023.10 1022.94 1022.78 1022.62 1022.46 1022.30 1022.14 1021.98 1021.78 1021.58 1021.42 1021.26 1021.10 1020.94 1020.82 1020.70 1020.70 1020.70 1020.66 1020.62 1020.58 1020.54 1020.54 1020.46 1020.42 1020.42 1020.30 1020.22 1020.10 1019.98 1019.90 1019.82
1022.54 1022.58 1022.70 1022.82 1022.86 1022.90 1022.94 1022.98 1022.98 1023.02 1023.10 1023.14 1023.18 1023.22 1023.26 1023.30 1023.34 1023.34 1023.38 1023.38 1023.34 1023.26 1023.26 1023.34 1023.42 1023.46 1023.42 1023.38 1023.38 1023.38 1023.30 1023.22 1023.14 1023.14 1023.14 1023.14 1022.94 1022.78 1022.66 1022.54 1022.42 1022.30 1022.14 1021.98 1021.78 1021.54 1021.38 1021.22 1021.02 1020.86 1020.70 1020.62 1020.54 1020.54 1020.50 1020.46 1020.46 1020.42 1020.42 1020.38 1020.30 1020.26 1020.18 1020.14 1020.02 1019.98 1019.86 1019.78 1019.66
1022.46 1022.54 1022.66 1022.74 1022.82 1022.86 1022.86 1022.90 1022.94 1022.98 1023.02 1023.10 1023.14 1023.18 1023.22 1023.26 1023.22 1023.22 1023.26 1023.22 1023.18 1023.18 1023.26 1023.30 1023.34 1023.38 1023.30 1023.26 1023.26 1023.26 1023.14 1023.06 1023.02 1022.98 1022.86 1022.86 1022.70 1022.58 1022.46 1022.30 1022.26 1022.14 1021.98 1021.74 1021.54 1021.30 1021.14 1020.98 1020.82 1020.70 1020.54 1020.42 1020.34 1020.30 1020.30 1020.26 1020.26 1020.26 1020.22 1020.14 1020.10 1020.02 1019.98 1019.86 1019.82 1019.74 1019.70 1019.58 1019.50
1022.42 1022.54 1022.66 1022.70 1022.74 1022.78 1022.78 1022.86 1022.86 1022.94 1022.98 1023.02 1023.06 1023.14 1023.14 1023.14 1023.14 1023.14 1023.14 1023.14 1023.10 1023.14 1023.18 1023.22 1023.26 1023.26 1023.22 1023.14 1023.10 1022.98 1022.94 1022.86 1022.78 1022.66 1022.54 1022.50 1022.46 1022.38 1022.26 1022.14 1022.02 1021.90 1021.70 1021.46 1021.26 1021.06 1020.94 1020.78 1020.66 1020.50 1020.34 1020.22 1020.14 1020.14 1020.18 1020.14 1020.14 1020.06 1019.98 1019.94 1019.86 1019.82 1019.74 1019.70 1019.66 1019.58 1019.50 1019.42 1019.26
1022.42 1022.54 1022.58 1022.62 1022.62 1022.70 1022.70 1022.78 1022.82 1022.86 1022.94 1022.98 1022.98 1023.02 1023.02 1023.02 1023.02 1023.02 1022.98 1022.98 1022.98 1023.02 1023.02 1023.02 1023.02 1022.98 1022.98 1022.94 1022.86 1022.82 1022.70 1022.58 1022.50 1022.42 1022.38 1022.30 1022.26 1022.22 1022.14 1021.98 1021.78 1021.58 1021.38 1021.22 1021.02 1020.90 1020.74 1020.58 1020.42 1020.30 1020.14 1020.02 1019.98 1019.98 1020.02 1019.98 1019.98 1019.90 1019.82 1019.74 1019.66 1019.58 1019.54 1019.46 1019.42 1019.34 1019.26 1019.18 1019.10
1022.38 1022.46 1022.54 1022.54 1022.54 1022.62 1022.70 1022.74 1022.78 1022.86 1022.90 1022.94 1022.94 1022.90 1022.90 1022.94 1022.90 1022.86 1022.82 1022.70 1022.78 1022.86 1022.86 1022.86 1022.86 1022.82 1022.78 1022.70 1022.70 1022.66 1022.54 1022.42 1022.34 1022.26 1022.18 1022.14 1022.14 1022.06 1021.94 1021.70 1021.50 1021.30 1021.14 1021.02 1020.86 1020.70 1020.54 1020.42 1020.26 1020.10 1019.98 1019.86 1019.86 1019.86 1019.86 1019.82 1019.78 1019.70 1019.62 1019.54 1019.46 1019.42 1019.30 1019.26 1019.14 1019.10 1019.06 1018.98 1018.86
1022.26 1022.38 1022.42 1022.50 1022.54 1022.54 1022.62 1022.70 1022.78 1022.86 1022.86 1022.86 1022.86 1022.86 1022.82 1022.78 1022.70 1022.70 1022.62 1022.54 1022.66 1022.70 1022.74 1022.70 1022.70 1022.70 1022.66 1022.58 1022.54 1022.42 1022.34 1022.26 1022.14 1022.02 1021.98 1021.94 1021.86 1021.82 1021.70 1021.46 1021.26 1021.10 1020.98 1020.86 1020.70 1020.54 1020.38 1020.22 1020.06 1019.90 1019.78 1019.70 1019.70 1019.70 1019.70 1019.62 1019.58 1019.54 1019.42 1019.38 1019.26 1019.18 1019.10 1019.02 1018.94 1018.86 1018.78 1018.74 1018.62
1022.18 1022.22 1022.30 1022.42 1022.46 1022.50 1022.54 1022.66 1022.70 1022.74 1022.78 1022.74 1022.70 1022.70 1022.66 1022.62 1022.54 1022.54 1022.50 1022.50 1022.58 1022.62 1022.62 1022.54 1022.54 1022.54 1022.46 1022.34 1022.26 1022.14 1022.02 1021.98 1021.94 1021.86 1021.74 1021.70 1021.62 1021.54 1021.42 1021.26 1021.10 1020.94 1020.78 1020.66 1020.50 1020.34 1020.18 1020.02 1019.86 1019.74 1019.66 1019.58 1019.54 1019.54 1019.50 1019.42 1019.42 1019.30 1019.26 1019.14 1019.02 1018.94 1018.86 1018.74 1018.62 1018.54 1018.54 1018.50 1018.38
1022.06 1022.14 1022.18 1022.30 1022.38 1022.42 1022.50 1022.58 1022.66 1022.66 1022.62 1022.54 1022.54 1022.50 1022.46 1022.42 1022.42 1022.38 1022.30 1022.30 1022.42 1022.46 1022.46 1022.42 1022.38 1022.26 1022.14 1022.06 1021.98 1021.86 1021.78 1021.70 1021.70 1021.66 1021.54 1021.46 1021.42 1021.34 1021.22 1021.06 1020.86 1020.70 1020.58 1020.46 1020.30 1020.14 1019.98 1019.82 1019.70 1019.54 1019.46 1019.42 1019.34 1019.30 1019.26 1019.22 1019.14 1019.06 1018.98 1018.86 1018.74 1018.62 1018.54 1018.46 1018.34 1018.26 1018.22 1018.18 1018.06
1021.94 1021.98 1022.10 1022.18 1022.26 1022.34 1022.42 1022.50 1022.50 1022.46 1022.42 1022.42 1022.38 1022.34 1022.26 1022.26 1022.18 1022.14 1022.10 1022.06 1022.18 1022.26 1022.26 1022.22 1022.14 1021.98 1021.82 1021.82 1021.74 1021.70 1021.58 1021.50 1021.46 1021.42 1021.34 1021.26 1021.14 1021.06 1020.98 1020.86 1020.62 1020.46 1020.30 1020.22 1020.06 1019.94 1019.78 1019.66 1019.50 1019.38 1019.26 1019.22 1019.14 1019.10 1019.02 1018.98 1018.90 1018.82 1018.70 1018.62 1018.50 1018.34 1018.22 1018.14 1018.10 1017.98 1017.90 1017.82 1017.66
1021.82 1021.94 1021.98 1022.10 1022.14 1022.22 1022.26 1022.30 1022.26 1022.26 1022.22 1022.22 1022.18 1022.14 1022.10 1022.02 1021.94 1021.86 1021.86 1021.90 1021.98 1022.02 1021.98 1021.98 1021.82 1021.70 1021.62 1021.58 1021.54 1021.50 1021.42 1021.26 1021.26 1021.18 1021.14 1020.98 1020.90 1020.74 1020.66 1020.54 1020.42 1020.22 1020.10 1019.98 1019.86 1019.74 1019.62 1019.42 1019.30 1019.14 1019.02 1018.98 1018.94 1018.86 1018.82 1018.70 1018.62 1018.54 1018.42 1018.34 1018.22 1018.06 1017.90 1017.82 1017.82 1017.74 1017.66 1017.50 1017.30
1021.82 1021.86 1021.94 1021.98 1022.02 1022.10 1022.14 1022.14 1022.10 1022.02 1021.98 1022.02 1021.98 1021.94 1021.86 1021.78 1021.78 1021.78 1021.78 1021.82 1021.82 1021.82 1021.78 1021.70 1021.62 1021.54 1021.50 1021.42 1021.42 1021.34 1021.26 1021.10 1020.98 1020.86 1020.82 1020.70 1020.66 1020.54 1020.42 1020.30 1020.18 1020.06 1019.94 1019.82 1019.70 1019.58 1019.42 1019.26 1019.14 1018.94 1018.82 1018.74 1018.66 1018.62 1018.54 1018.50 1018.38 1018.26 1018.14 1018.02 1017.98 1017.82 1017.70 1017.54 1017.46 1017.42 1017.26 1017.14 1016.98
Wind_Speed
3 3 3 4 4 3 3 2 2 3 3 4 4 4 3 3 3 2 2 2 2 2 2 2 2 1 1 0 0 0 0 1 1 1 1 1 1 1 1 1 1 1 1 1 1 1 1 1 1 1 1 1 1 1 2 1 1 1 1 1 2 2 2 2 3 3 4 4 3
3 3 3 4 4 3 3 3 3 3 3 2 3 3 3 3 3 2 2 2 2 2 2 1 1 1 1 1 1 1 1 1 1 1 1 1 1 1 1 1 1 1 1 1 0 0 0 1 0 1 1 1 1 1 1 2 1 1 1 2 2 2 2 2 3 3 3 3 3
3 4 4 4 4 4 3 3 3 3 3 2 2 2 2 2 2 2 2 2 2 1 1 1 1 1 1 1 1 1 1 1 1 1 1 1 1 1 1 1 1 1 0 0 0 0 0 0 0 1 1 1 1 1 2 2 1 1 1 2 2 2 2 2 3 3 3 3 3
4 4 4 5 5 5 5 5 4 4 3 3 2 2 2 2 2 2 2 1 1 1 1 2 1 1 1 1 1 1 1 1 1 1 1 1 1 1 1 1 0 0 0 0 0 0 0 0 0 1 1 1 2 2 2 2 1 1 1 2 2 2 2 3 3 3 3 3 3
4 4 4 5 5 5 5 5 5 5 4 3 3 2 2 1 1 1 1 1 1 2 2 2 2 1 1 1 1 1 1 1 2 2 1 1 1 1 1 0 1 1 1 1 1 1 1 1 1 1 1 1 2 2 2 2 1 1 2 2 2 2 2 3 3 3 3 3 3
5 4 3 3 4 4 3 3 5 5 4 4 3 3 2 1 1 2 2 2 2 2 2 2 2 1 1 1 1 1 1 2 2 1 1 1 1 1 1 1 1 1 2 2 2 2 1 1 2 2 2 2 2 2 2 2 1 2 2 3 3 2 2 3 3 3 3 4 4
5 4 4 3 3 3 3 3 4 4 4 4 4 4 3 3 2 2 2 2 2 1 1 1 1 1 1 1 1 1 2 2 2 2 1 1 1 1 2 2 2 2 3 2 3 2 2 2 2 2 3 3 3 3 2 1 1 2 3 4 3 3 3 3 3 3 3 4 5
4 4 4 3 3 4 4 4 4 4 4 3 4 4 4 4 3 3 2 1 1 1 1 1 1 1 1 1 1 2 2 2 2 1 1 0 1 2 2 3 3 3 3 3 3 3 2 2 2 2 3 3 3 3 3 2 2 3 4 5 4 4 3 3 3 3 4 5 6
3 3 3 3 3 3 4 5 5 5 4 4 3 4 4 4 4 3 2 1 1 1 1 1 1 1 1 2 2 3 2 2 1 0 0 1 2 3 3 3 4 4 4 3 2 2 2 2 2 2 3 3 3 3 3 3 3 4 4 5 5 4 4 4 3 3 4 5 6
4 4 3 3 3 3 4 4 4 4 4 4 3 3 3 3 3 3 2 2 1 1 1 1 2 2 2 3 3 3 2 1 0 0 1 2 2 2 3 3 3 4 4 4 3 2 2 2 2 3 3 3 3 4 4 4 4 5 5 4 5 5 5 5 5 4 5 5 6
6 4 4 4 4 4 4 4 4 3 3 3 3 2 2 2 2 2 2 2 1 1 2 2 2 3 3 4 3 2 2 1 1 1 1 2 2 2 2 2 3 4 4 4 3 2 2 2 3 4 4 4 4 4 5 4 4 5 6 5 5 5 6 6 6 5 5 5 6
5 4 4 4 4 4 4 4 3 3 3 3 3 2 2 2 2 2 2 2 2 2 3 3 3 3 3 3 2 2 1 1 1 1 1 2 2 2 2 3 3 4 4 4 3 2 2 3 3 4 5 5 4 4 5 5 5 5 6 6 5 6 6 7 7 6 5 5 6
5 5 4 4 4 4 4 4 3 3 3 3 2 2 2 2 2 2 3 3 3 3 3 3 3 3 3 2 1 1 1 1 0 0 1 2 2 3 3 3 4 4 4 4 3 2 2 3 4 5 6 6 6 5 5 5 5 6 7 7 7 7 7 8 8 7 6 6 6
5 5 4 4 4 4 4 4 3 3 3 3 2 2 2 2 2 2 3 3 3 3 3 3 3 3 2 2 1 1 1 1 0 0 1 2 2 3 3 4 4 4 4 4 3 3 3 4 5 5 6 7 7 7 6 6 6 6 7 8 8 8 9 9 8 7 7 7 7
5 4 4 4 4 4 4 4 3 3 3 3 2 2 2 2 2 3 3 3 3 3 3 2 2 2 2 1 1 1 1 1 0 1 2 3 3 3 4 4 5 5 5 4 4 4 4 5 6 6 6 7 7 7 7 6 7 7 7 8 8 9 9 9 8 8 8 8 8
5 4 4 4 4 4 4 4 3 3 3 2 2 2 2 2 2 3 3 3 3 2 2 1 1 1 1 1 1 1 1 1 1 1 2 3 4 4 4 5 5 5 5 5 5 5 5 5 6 6 6 7 7 7 7 7 7 7 8 8 8 9 9 9 9 9 8 8 8
5 4 4 4 4 4 4 3 3 2 2 3 3 3 3 3 3 3 3 3 2 1 1 0 0 0 0 0 1 1 1 1 1 2 3 4 4 5 5 6 6 6 6 5 6 6 6 6 6 6 6 7 7 7 8 8 8 8 8 9 9 9 9 10 9 9 9 9 9
4 4 4 4 4 4 4 3 3 3 3 3 3 3 3 3 3 3 3 2 2 1 0 1 1 1 1 1 1 1 1 1 2 3 4 4 5 5 6 6 6 6 6 5 6 7 7 7 7 6 6 6 7 7 7 8 8 8 9 9 9 9 9 10 9 9 9 9 10
5 4 4 4 4 4 4 4 4 3 3 3 3 3 3 3 3 3 2 2 2 1 1 1 1 1 1 2 2 1 1 2 3 4 4 5 5 5 6 7 7 6 6 6 6 7 7 8 7 7 7 7 7 7 7 8 8 8 9 9 9 9 9 10 10 9 9 10 10
6 5 4 4 4 4 4 4 4 3 3 3 3 3 3 3 3 2 2 2 2 2 2 1 1 2 2 2 2 2 2 2 3 4 5 5 5 5 6 7 7 6 6 6 6 7 7 7 7 7 7 7 8 8 8 8 8 9 9 9 9 9 10 10 10 10 10 10 10
5 5 4 4 4 4 4 4 3 3 3 3 3 3 3 3 2 2 2 2 2 2 2 2 2 2 3 3 3 3 3 2 3 4 4 5 5 6 6 6 6 6 6 6 6 7 7 7 7 8 8 8 8 9 9 8 9 9 9 8 9 9 10 10 10 10 10 10 10
4 4 3 3 4 4 3 3 3 3 3 3 3 2 2 2 2 2 2 2 2 2 2 2 3 3 3 3 3 4 3 3 3 4 4 5 6 6 6 6 6 6 6 7 7 7 7 7 8 8 8 8 8 9 9 8 9 9 9 9 9 9 9 9 9 9 9 9 10
3 3 3 3 3 3 3 3 3 3 2 2 2 2 2 2 2 2 2 2 2 2 2 3 3 3 3 3 3 3 3 4 4 5 5 5 5 6 6 5 5 6 6 7 7 6 7 7 8 8 8 8 8 9 9 8 8 8 9 9 9 9 9 9 8 8 8 9 9
3 3 3 2 3 3 3 3 3 2 2 2 2 2 2 1 1 1 1 2 2 2 2 2 2 3 3 3 3 3 3 4 5 6 6 6 5 6 6 5 5 6 6 6 6 7 7 7 7 7 7 7 7 7 7 7 8 8 8 9 9 8 8 8 7 7 8 8 8
4 3 3 3 3 3 3 3 2 2 2 2 2 2 1 1 1 1 1 1 2 2 2 2 2 2 2 2 3 3 3 4 5 6 6 7 6 6 5 5 5 5 5 6 9 12 13 12 9 7 6 6 6 6 6 7 7 8 8 8 8 8 7 7 7 7 7 8 7
4 3 3 3 3 3 3 2 2 2 2 2 2 1 1 2 1 1 1 2 2 2 2 2 2 2 2 2 2 3 3 4 5 5 6 7 7 6 6 5 5 5 5 7 11 14 16 17 16 13 9 5 5 6 6 6 7 7 7 7 7 7 7 7 7 7 7 7 7
3 3 3 3 3 3 2 2 2 2 2 2 2 2 2 2 1 1 1 2 2 2 2 2 2 2 2 2 3 3 4 4 4 5 5 6 7 7 6 6 6 5 6 9 13 15 17 17 18 17 13 8 6 6 6 6 6 6 6 6 6 6 7 7 7 8 7 7 7
3 3 3 3 2 2 2 2 2 2 2 2 2 2 2 1 1 1 1 2 2 2 2 2 2 2 1 1 3 4 5 5 5 5 5 6 6 7 7 6 6 6 8 12 15 16 17 18 18 18 16 13 8 6 5 6 6 6 6 6 6 6 6 6 7 7 8 8 8
4 3 3 3 3 2 2 2 2 2 2 2 2 2 1 1 1 1 1 2 2 2 2 2 1 1 1 2 3 4 5 5 5 5 5 5 6 7 7 8 7 8 11 14 16 17 17 18 18 18 18 16 10 6 5 5 5 5 5 5 5 6 6 6 7 7 8 8 8
3 3 3 3 2 2 2 3 3 2 2 2 2 1 1 1 1 1 2 2 3 3 2 1 1 1 2 4 4 4 4 5 5 4 5 6 6 7 8 8 7 8 10 14 16 17 17 18 18 18 18 17 13 8 6 5 5 5 5 5 5 6 6 7 8 8 8 7 7
3 3 3 3 2 2 3 3 2 2 2 2 1 1 1 1 2 2 2 2 2 2 2 1 2 3 4 4 4 4 5 5 5 5 6 7 8 8 8 8 8 8 10 14 16 17 18 18 18 18 18 18 14 9 6 5 5 5 5 5 6 7 7 7 7 8 8 7 7
3 3 3 2 2 3 2 2 2 2 2 2 1 1 2 2 2 2 2 2 2 2 2 2 3 4 4 4 4 5 5 6 6 6 7 7 8 8 8 8 8 8 10 14 16 17 18 18 18 18 18 18 14 10 6 5 5 5 5 6 7 7 7 7 7 7 8 8 7
3 3 3 3 3 2 2 2 2 2 1 1 1 2 2 2 2 2 2 2 2 2 3 3 4 4 5 5 5 5 6 6 8 8 8 8 8 8 7 8 7 8 11 14 16 17 18 18 18 18 19 18 14 9 6 5 4 5 5 6 7 7 7 7 7 7 7 8 8
3 3 3 3 3 2 2 1 1 1 1 1 2 2 2 2 2 3 2 2 2 2 3 3 4 4 5 5 5 5 6 7 7 7 8 8 7 7 7 7 6 8 12 15 17 18 18 18 18 19 19 18 12 8 5 5 5 5 6 7 7 7 7 7 7 7 7 8 8
4 4 3 3 2 2 1 1 1 1 1 1 2 3 3 3 3 3 3 3 2 2 3 3 3 4 4 5 5 6 7 8 8 8 8 7 6 7 7 7 7 10 13 16 17 18 18 18 19 19 18 16 10 6 5 5 6 6 7 7 7 7 7 7 7 7 7 8 9
4 4 3 2 2 2 1 1 1 1 1 2 3 4 3 3 3 3 3 2 2 2 2 3 3 3 4 5 6 6 7 8 9 8 8 7 6 6 7 8 8 10 13 15 17 18 18 18 19 19 17 13 8 5 5 5 6 6 7 7 7 7 7 7 7 7 8 8 8
5 4 3 2 2 2 2 2 2 2 3 4 4 4 4 3 3 3 3 2 2 2 3 3 3 4 5 6 6 7 8 7 8 8 8 8 7 7 8 9 8 10 12 15 16 17 18 18 19 18 16 11 7 5 5 5 5 6 6 7 7 7 7 7 7 7 8 8 8
4 4 3 3 3 3 2 2 3 3 4 5 5 4 3 3 3 3 3 3 3 3 4 4 5 5 6 6 7 7 8 7 7 8 8 8 8 8 8 9 8 9 11 13 16 17 18 19 19 18 15 10 7 6 5 5 5 5 6 6 6 7 7 7 6 7 7 8 11
4 4 4 3 3 3 3 3 4 5 5 5 4 4 3 3 3 3 3 3 3 4 4 5 6 6 7 7 7 7 7 7 7 8 8 9 9 9 9 9 9 9 10 13 16 17 18 19 19 19 16 12 8 6 5 5 5 6 6 6 6 7 7 7 6 6 7 8 13
4 4 4 4 4 4 4 4 5 5 5 4 4 4 4 3 3 3 3 3 3 4 4 5 6 7 8 7 7 7 7 8 7 8 8 9 9 11 11 10 9 9 10 13 16 17 18 19 19 19 16 11 7 5 5 5 6 6 6 6 6 7 7 6 6 6 7 8 11
4 4 4 4 4 4 5 6 6 6 5 4 5 5 4 3 3 3 3 3 4 4 5 6 7 8 8 7 7 7 8 8 8 8 8 9 10 11 11 10 10 9 10 11 15 17 18 19 19 18 16 11 7 6 5 5 6 6 7 7 6 6 6 6 6 6 7 7 8
Wind_Direction
132 138 143 148 153 155 153 142 129 127 131 139 149 155 157 152 157 167 173 169 176 186 195 200 204 209 214 206 202 213 230 228 224 236 239 234 235 234 233 228 218 217 228 242 227 217 210 202 217 232 239 233 242 249 251 244 234 237 251 262 259 255 255 266 270 273 272 270 263
141 140 140 141 143 139 131 121 117 115 121 134 144 150 154 153 156 160 170 180 187 188 188 200 206 211 212 222 212 210 212 220 219 226 233 236 234 231 226 220 208 209 218 244 226 213 201 186 215 272 280 260 272 278 271 250 229 246 276 275 261 253 255 266 267 266 266 268 267
142 138 137 140 143 140 137 134 135 134 134 135 131 136 140 144 144 153 164 180 184 183 186 202 207 207 207 215 212 206 205 214 219 225 232 234 235 229 224 222 215 216 215 206 209 183 182 181 254 304 310 307 310 299 285 265 245 257 273 272 263 262 270 277 275 273 273 275 273
144 147 150 156 157 156 154 152 151 149 146 137 122 117 121 128 133 141 151 158 170 191 201 201 200 200 200 200 206 213 220 226 227 230 236 244 242 239 231 226 261 300 305 263 28 61 143 209 287 308 314 311 300 290 283 277 278 271 263 259 262 272 279 283 282 281 281 281 275
160 163 166 168 166 163 157 149 147 146 142 129 118 114 116 125 131 134 140 156 191 202 202 194 196 196 194 181 194 215 234 244 241 237 237 252 255 252 246 270 338 341 337 354 3 12 4 349 328 315 303 285 278 272 270 269 279 277 273 271 274 277 281 284 284 282 282 283 280
169 172 173 171 160 151 142 135 135 135 133 126 122 127 137 152 152 158 170 186 197 199 197 193 195 191 183 169 194 223 236 240 240 234 231 253 267 289 321 342 343 346 348 354 356 360 2 360 339 323 308 292 282 272 265 256 273 285 289 292 286 284 284 283 281 282 283 284 284
163 164 165 164 152 141 133 127 122 122 122 122 129 142 156 167 169 174 183 190 190 192 190 189 186 178 174 177 212 228 233 231 226 220 220 251 305 337 348 348 348 348 349 349 350 350 351 356 336 319 308 303 296 286 278 266 280 291 294 292 288 284 281 275 276 279 282 281 281
148 153 157 156 148 142 136 132 126 123 124 129 141 153 162 167 168 172 175 174 181 183 181 171 178 178 181 191 215 224 226 224 222 217 215 313 350 352 351 351 348 343 339 339 342 339 335 333 321 306 299 299 295 290 287 285 290 292 289 286 285 281 276 273 274 275 276 276 276
138 142 142 138 138 137 134 132 129 128 131 139 150 158 162 163 162 160 158 166 173 172 165 177 185 185 192 206 218 220 220 216 224 254 343 14 1 353 347 346 341 333 326 325 328 325 319 314 302 289 283 284 286 286 287 290 291 287 283 280 282 281 278 274 274 273 272 271 272
150 148 141 136 135 130 125 120 119 122 128 137 146 154 157 158 156 155 156 159 145 149 177 203 192 193 203 214 219 218 214 201 182 11 2 1 354 344 335 331 325 318 312 309 311 310 305 298 290 283 279 277 278 280 282 283 282 279 278 278 281 283 283 279 276 273 271 269 268
154 152 148 145 141 131 122 115 113 113 118 127 135 141 149 155 156 157 152 132 134 181 211 209 193 196 205 214 214 211 202 178 124 34 359 341 331 321 312 306 302 298 296 295 295 294 290 284 282 281 280 276 276 277 278 277 276 275 275 276 279 282 282 281 277 273 270 269 268
148 145 142 139 136 129 123 119 120 118 119 123 131 139 152 167 169 159 147 137 171 202 214 209 197 199 205 211 208 199 174 137 102 41 345 316 307 300 295 289 285 283 282 282 280 277 274 272 274 278 279 279 277 276 275 275 275 275 276 277 277 278 279 280 278 276 273 272 273
139 136 134 132 131 127 123 123 124 124 124 128 139 153 171 190 180 167 160 170 191 205 211 207 201 201 204 207 199 177 134 117 99 9 305 292 289 287 286 283 279 277 276 274 269 264 263 264 267 271 275 278 277 275 272 271 272 273 275 278 279 278 278 278 278 278 277 277 277
132 133 135 135 132 128 126 126 128 127 129 138 156 173 185 202 194 180 176 185 197 204 204 203 202 201 198 194 181 159 138 131 122 287 286 282 278 278 279 277 275 273 272 270 266 260 258 261 262 265 268 272 275 274 271 268 266 267 270 274 277 277 277 278 277 278 279 279 277
130 132 135 134 132 129 128 130 133 134 138 151 172 183 189 203 202 192 187 193 201 202 198 194 199 197 188 174 167 161 156 157 189 270 280 282 277 275 273 274 273 273 271 271 268 261 257 257 259 260 262 266 270 271 271 268 265 265 266 268 270 273 275 276 277 277 276 275 276
133 134 134 132 131 130 131 134 138 142 150 167 180 185 190 200 201 196 192 196 198 197 191 187 199 203 189 172 164 160 164 185 221 259 273 278 277 276 274 273 273 272 272 272 272 268 263 257 256 256 258 261 265 268 270 269 267 266 265 265 266 268 270 272 273 273 272 270 271
137 140 140 136 134 135 137 141 147 155 167 180 186 188 190 192 194 195 193 189 183 178 181 220 220 254 280 259 172 167 181 228 246 257 262 267 271 273 273 272 271 270 270 271 272 272 270 266 261 257 255 256 261 264 267 267 268 267 267 266 266 266 267 269 270 270 270 269 269
145 147 146 140 140 143 147 154 161 173 182 188 190 190 189 187 186 186 186 178 164 155 182 273 248 251 276 287 263 228 220 243 255 257 258 260 263 266 269 270 270 269 268 267 267 269 270 271 269 265 261 259 260 262 264 265 267 267 267 267 267 267 266 267 267 267 266 266 266
154 155 153 151 152 154 158 165 172 181 188 190 188 188 186 185 179 173 168 167 164 165 187 260 265 261 258 264 266 259 248 243 255 258 260 259 261 263 265 267 269 268 267 264 263 264 266 268 269 269 268 267 266 266 266 266 267 267 267 267 267 267 266 265 263 262 261 261 263
160 162 164 164 162 163 167 173 178 182 185 185 184 183 182 180 172 163 160 169 173 173 180 219 258 270 271 268 274 271 262 247 252 259 262 263 264 264 264 265 268 268 266 263 262 262 264 266 267 268 268 268 269 270 270 269 268 267 267 267 266 265 264 263 262 260 259 258 259
167 169 171 168 166 168 173 178 179 178 179 180 182 180 178 173 169 167 173 177 175 176 183 205 236 258 269 275 278 275 270 261 255 258 262 265 266 265 264 264 267 268 268 265 263 262 263 264 265 266 266 266 267 267 268 269 269 268 267 266 265 263 262 261 261 260 259 258 258
173 172 168 165 167 170 172 174 174 173 175 179 180 177 173 170 176 183 185 179 176 183 196 212 226 241 252 260 266 270 273 276 267 263 263 265 267 266 266 265 266 268 269 268 266 264 264 265 264 263 263 264 263 263 263 264 266 267 267 266 265 264 263 261 261 260 259 258 257
169 166 162 162 163 162 162 162 165 168 172 175 175 171 170 175 184 188 187 183 190 201 213 220 226 233 239 244 250 261 273 282 280 276 270 265 266 268 268 267 264 264 264 265 263 262 263 265 263 260 257 256 256 257 258 258 260 262 265 266 266 266 265 263 261 259 258 257 256
156 154 155 153 153 153 154 157 160 163 168 170 169 170 173 180 187 188 192 198 207 216 223 230 231 233 235 239 240 248 260 273 279 281 279 274 270 269 268 267 262 259 258 259 260 262 265 267 262 258 254 251 251 252 253 253 255 258 261 265 268 269 269 268 264 262 260 259 256
148 147 147 146 148 150 152 156 161 164 169 173 170 171 178 187 190 198 212 229 231 232 235 243 246 244 242 245 244 243 247 255 264 271 277 280 276 274 271 267 262 258 256 257 268 275 281 286 284 278 268 262 260 259 259 258 259 261 263 267 271 275 277 278 274 270 266 263 259
142 143 146 148 145 148 154 164 168 171 173 174 171 178 186 192 189 200 225 256 258 255 253 257 262 263 261 259 260 258 254 249 251 256 264 271 275 276 274 268 264 260 259 262 275 283 290 294 296 295 291 281 275 274 273 271 268 268 269 270 273 277 281 285 284 281 277 272 266
140 142 144 143 142 150 163 173 172 174 177 179 184 191 193 184 178 192 230 258 266 269 269 266 265 269 271 268 270 267 264 259 253 250 251 257 264 269 271 270 266 263 264 269 279 287 293 297 298 299 298 292 285 279 278 278 276 275 274 275 276 277 280 282 285 286 286 284 280
143 141 140 136 147 160 171 175 177 184 190 189 193 190 184 172 175 205 237 257 271 280 280 270 262 262 268 266 262 261 261 262 259 254 251 252 256 259 263 266 265 264 268 274 284 291 296 299 299 299 299 298 292 286 283 282 283 282 281 281 282 282 283 284 286 288 289 290 289
141 137 138 144 158 170 179 182 191 194 195 188 183 177 169 169 194 225 246 263 274 276 272 267 268 270 266 261 259 260 261 261 258 256 255 255 256 257 258 260 261 264 270 278 288 294 297 298 298 299 299 301 298 294 290 287 287 287 287 286 286 286 286 285 287 288 289 289 290
137 138 143 155 166 179 190 195 195 191 184 173 163 158 165 199 233 244 249 255 255 252 248 246 264 268 263 259 262 264 265 262 259 256 254 253 256 257 258 258 258 262 271 280 288 294 297 298 298 299 300 301 300 297 291 287 286 287 287 287 285 284 283 283 283 283 284 285 286
140 143 149 159 179 195 201 197 188 177 166 155 152 163 194 236 244 240 233 231 237 239 239 229 254 259 260 259 262 263 264 263 261 256 251 249 253 256 259 260 259 264 271 280 288 293 296 298 299 299 300 302 301 298 292 289 287 285 284 283 281 279 279 279 280 279 278 278 281
144 149 157 172 196 206 203 188 173 161 153 152 165 190 217 233 234 227 216 210 225 243 255 256 258 261 264 265 262 260 259 259 257 253 248 245 249 253 258 262 262 265 272 280 288 293 297 299 299 300 300 301 300 297 293 290 287 283 280 278 275 274 274 275 276 275 274 274 279
151 158 170 187 205 210 200 174 160 151 150 162 189 211 224 232 234 231 224 217 221 230 241 249 251 256 259 259 258 256 254 252 251 250 249 247 248 253 259 264 265 269 275 283 291 295 298 299 299 299 299 300 299 297 294 289 285 282 279 276 272 270 269 268 269 269 271 274 279
163 169 180 195 208 209 198 164 147 140 153 197 220 223 223 229 240 244 239 225 215 216 222 231 237 242 245 246 249 252 254 255 254 253 252 251 251 256 261 265 265 271 278 286 293 296 298 299 298 298 298 299 298 297 292 286 282 279 276 274 271 268 266 265 264 265 268 272 277
171 176 186 200 207 206 196 165 145 145 181 238 245 239 232 227 234 237 237 229 220 219 226 232 234 239 244 246 246 249 254 258 259 258 256 254 254 258 262 264 266 272 279 286 292 295 297 297 297 297 298 298 297 292 286 280 277 274 272 270 269 267 265 264 264 264 266 269 272
176 178 186 201 206 206 196 176 163 181 224 244 249 248 244 235 232 230 228 227 227 235 241 243 241 244 248 249 246 246 248 251 255 257 258 255 256 259 263 266 268 273 279 285 290 294 295 296 296 296 297 297 293 286 280 276 273 270 268 266 265 264 263 264 265 265 265 265 267
178 177 180 196 207 208 197 180 184 215 235 243 245 244 243 240 238 231 220 210 224 238 246 246 245 245 246 246 247 246 245 245 250 256 260 260 258 261 264 268 270 273 277 283 288 291 294 295 295 296 296 294 289 282 277 273 271 268 266 265 263 262 263 266 267 266 264 261 263
176 174 176 192 207 209 200 190 203 223 236 242 241 238 234 232 237 232 221 207 218 233 243 246 245 244 245 245 248 250 250 247 248 253 259 262 260 260 263 268 270 271 274 280 285 290 292 294 294 294 294 290 285 279 275 273 270 267 266 265 267 266 266 268 269 268 265 259 265
175 174 178 191 205 209 207 206 216 226 233 239 241 240 235 231 233 231 225 212 213 225 237 245 246 247 248 249 253 258 259 256 252 252 256 260 260 261 263 266 269 270 273 279 285 289 291 292 292 292 291 288 283 277 273 271 268 267 266 267 271 272 271 270 270 270 267 262 267
174 175 181 193 204 209 213 220 226 228 230 234 240 241 239 234 235 237 233 223 219 226 235 244 249 252 254 256 260 264 267 267 261 257 256 258 261 265 267 268 269 272 275 280 284 287 289 290 290 290 289 286 278 271 268 268 267 268 268 270 274 277 279 276 272 271 269 266 268
173 177 186 198 205 211 217 227 234 234 233 232 237 239 240 240 243 244 243 238 235 236 240 246 252 256 259 262 264 267 269 272 269 265 261 261 264 267 269 269 271 272 275 278 282 284 286 287 287 287 287 283 275 267 263 264 268 270 272 273 274 278 281 282 278 275 273 271 270